Time,TemperatureF,DewpointF,PressureIn,WindDirection,WindDirectionDegrees,WindSpeedMPH,WindSpeedGustMPH,Humidity,HourlyPrecipIn,Conditions,Clouds,dailyrainin,SoftwareType,DateUTC
2013-09-12 00:04:00,77.0,67.7,30.06,North,0,0.0,0.0,73,0.00,,,0.00,WUHU21623XXSP,2013-09-12 05:04:00,
2013-09-12 00:09:00,77.0,67.7,30.06,North,0,0.0,0.0,73,0.00,,,0.00,WUHU21623XXSP,2013-09-12 05:09:00,
2013-09-12 00:14:00,76.8,67.5,30.06,North,0,0.0,0.0,73,0.00,,,0.00,WUHU21623XXSP,2013-09-12 05:14:00,
2013-09-12 00:19:00,76.6,67.5,30.06,North,0,0.0,0.0,73,0.00,,,0.00,WUHU21623XXSP,2013-09-12 05:19:00,
2013-09-12 00:24:00,76.5,67.2,30.06,North,0,0.0,0.0,73,0.00,,,0.00,WUHU21623XXSP,2013-09-12 05:24:00,
2013-09-12 00:29:00,76.3,67.4,30.06,North,0,0.0,0.0,74,0.00,,,0.00,WUHU21623XXSP,2013-09-12 05:29:00,
2013-09-12 00:34:00,75.9,67.0,30.07,North,0,0.0,0.0,74,0.00,,,0.00,WUHU21623XXSP,2013-09-12 05:34:00,
2013-09-12 00:39:00,75.9,67.4,30.06,North,0,0.0,0.0,75,0.00,,,0.00,WUHU21623XXSP,2013-09-12 05:39:00,
2013-09-12 00:44:00,75.7,67.6,30.06,North,0,0.0,0.0,76,0.00,,,0.00,WUHU21623XXSP,2013-09-12 05:44:00,
2013-09-12 00:49:00,75.6,67.5,30.06,North,0,0.0,0.0,76,0.00,,,0.00,WUHU21623XXSP,2013-09-12 05:49:00,
2013-09-12 00:54:00,75.4,67.5,30.06,North,0,0.0,0.0,76,0.00,,,0.00,WUHU21623XXSP,2013-09-12 05:54:00,
2013-09-12 00:59:00,75.0,67.1,30.07,North,0,0.0,0.0,75,0.00,,,0.00,WUHU21623XXSP,2013-09-12 05:59:00,
2013-09-12 01:04:00,75.0,67.1,30.07,North,0,0.0,0.0,75,0.00,,,0.00,WUHU21623XXSP,2013-09-12 06:04:00,
2013-09-12 01:12:00,74.8,66.4,30.07,North,0,0.0,0.0,75,0.00,,,0.00,WUHU21623XXSP,2013-09-12 06:12:00,
2013-09-12 01:17:00,74.8,66.4,30.07,North,0,0.0,0.0,75,0.00,,,0.00,WUHU21623XXSP,2013-09-12 06:17:00,
2013-09-12 01:22:00,74.8,66.0,30.07,North,0,0.0,0.0,74,0.00,,,0.00,WUHU21623XXSP,2013-09-12 06:22:00,
2013-09-12 01:27:00,74.8,66.4,30.07,North,0,0.0,0.0,75,0.00,,,0.00,WUHU21623XXSP,2013-09-12 06:27:00,
2013-09-12 01:32:00,74.8,66.4,30.07,North,0,0.0,0.0,75,0.00,,,0.00,WUHU21623XXSP,2013-09-12 06:32:00,
2013-09-12 01:37:00,74.8,66.4,30.07,North,0,0.0,0.0,75,0.00,,,0.00,WUHU21623XXSP,2013-09-12 06:37:00,
2013-09-12 01:42:00,74.8,66.4,30.07,North,0,0.0,0.0,75,0.00,,,0.00,WUHU21623XXSP,2013-09-12 06:42:00,
2013-09-12 01:47:00,74.7,66.0,30.07,North,0,0.0,0.0,74,0.00,,,0.00,WUHU21623XXSP,2013-09-12 06:47:00,
2013-09-12 01:52:00,74.5,65.7,30.07,North,0,0.0,0.0,74,0.00,,,0.00,WUHU21623XXSP,2013-09-12 06:52:00,
2013-09-12 01:57:00,74.5,66.1,30.07,North,0,0.0,0.0,75,0.00,,,0.00,WUHU21623XXSP,2013-09-12 06:57:00,
2013-09-12 02:02:00,74.5,66.1,30.07,North,0,0.0,0.0,75,0.00,,,0.00,WUHU21623XXSP,2013-09-12 07:02:00,
2013-09-12 02:07:00,74.3,65.9,30.07,North,0,0.0,0.0,75,0.00,,,0.00,WUHU21623XXSP,2013-09-12 07:07:00,
2013-09-12 02:12:00,74.5,66.1,30.07,North,0,0.0,0.0,75,0.00,,,0.00,WUHU21623XXSP,2013-09-12 07:12:00,
2013-09-12 02:17:00,74.5,66.1,30.07,North,0,0.0,0.0,75,0.00,,,0.00,WUHU21623XXSP,2013-09-12 07:17:00,
2013-09-12 02:22:00,74.5,66.1,30.07,North,0,0.0,0.0,75,0.00,,,0.00,WUHU21623XXSP,2013-09-12 07:22:00,
2013-09-12 02:27:00,74.3,65.9,30.07,North,0,0.0,0.0,75,0.00,,,0.00,WUHU21623XXSP,2013-09-12 07:27:00,
2013-09-12 02:32:00,74.3,65.9,30.07,North,0,0.0,0.0,75,0.00,,,0.00,WUHU21623XXSP,2013-09-12 07:32:00,
2013-09-12 13:01:00,80.8,67.9,30.12,North,0,0.0,0.0,65,0.00,,,0.00,WUHU21623XXSP,2013-09-12 18:01:00,
2013-09-12 13:06:00,81.0,67.6,30.12,North,0,0.0,0.0,64,0.00,,,0.00,WUHU21623XXSP,2013-09-12 18:06:00,
2013-09-12 13:11:00,81.1,67.8,30.12,North,0,0.0,0.0,64,0.00,,,0.00,WUHU21623XXSP,2013-09-12 18:11:00,
2013-09-12 13:16:00,81.5,67.2,30.12,North,0,0.0,0.0,62,0.00,,,0.00,WUHU21623XXSP,2013-09-12 18:16:00,
2013-09-12 13:21:00,82.0,67.4,30.12,North,0,0.0,0.0,62,0.00,,,0.00,WUHU21623XXSP,2013-09-12 18:21:00,
2013-09-12 13:26:00,82.6,67.7,30.12,North,0,0.0,0.0,61,0.00,,,0.00,WUHU21623XXSP,2013-09-12 18:26:00,
2013-09-12 13:31:00,83.1,66.8,30.12,North,0,0.0,0.0,58,0.00,,,0.00,WUHU21623XXSP,2013-09-12 18:31:00,
2013-09-12 13:36:00,83.7,67.0,30.11,North,0,0.0,0.0,57,0.00,,,0.00,WUHU21623XXSP,2013-09-12 18:36:00,
2013-09-12 13:41:00,84.2,66.8,30.11,North,0,0.0,0.0,56,0.00,,,0.00,WUHU21623XXSP,2013-09-12 18:41:00,
2013-09-12 13:46:00,84.9,66.3,30.11,North,0,0.0,0.0,54,0.00,,,0.00,WUHU21623XXSP,2013-09-12 18:46:00,
2013-09-12 13:51:00,85.3,66.7,30.10,North,0,0.0,0.0,54,0.00,,,0.00,WUHU21623XXSP,2013-09-12 18:51:00,
2013-09-12 13:56:00,85.8,66.5,30.10,North,0,0.0,0.0,53,0.00,,,0.00,WUHU21623XXSP,2013-09-12 18:56:00,
2013-09-12 14:01:00,86.7,66.5,30.10,North,0,0.0,0.0,52,0.00,,,0.00,WUHU21623XXSP,2013-09-12 19:01:00,
2013-09-12 14:06:00,87.1,67.3,30.10,North,0,0.0,0.0,52,0.00,,,0.00,WUHU21623XXSP,2013-09-12 19:06:00,
2013-09-12 14:11:00,87.1,66.8,30.10,North,0,0.0,0.0,51,0.00,,,0.00,WUHU21623XXSP,2013-09-12 19:11:00,
2013-09-12 23:23:00,65.8,49.7,30.14,North,0,0.0,0.0,56,0.00,,,0.00,WUHU21623XXSP,2013-09-13 04:23:00,
2013-09-12 23:25:00,65.7,50.2,30.14,North,0,0.0,0.0,57,0.00,,,0.00,WUHU21623XXSP,2013-09-13 04:25:00,
2013-09-12 23:28:00,65.5,49.8,30.14,North,0,0.0,0.0,57,0.00,,,0.00,WUHU21623XXSP,2013-09-13 04:28:00,
2013-09-12 23:30:00,65.5,49.8,30.14,North,0,0.0,0.0,57,0.00,,,0.00,WUHU21623XXSP,2013-09-13 04:30:00,
2013-09-12 23:35:00,65.3,50.1,30.14,North,0,0.0,0.0,58,0.00,,,0.00,WUHU21623XXSP,2013-09-13 04:35:00,
2013-09-12 23:41:00,65.1,49.9,30.14,North,0,0.0,0.0,58,0.00,,,0.00,WUHU21623XXSP,2013-09-13 04:41:00,
2013-09-12 23:46:00,64.9,50.2,30.14,North,0,0.0,0.0,58,0.00,,,0.00,WUHU21623XXSP,2013-09-13 04:46:00,
2013-09-12 23:51:00,64.6,49.4,30.14,North,0,0.0,0.0,58,0.00,,,0.00,WUHU21623XXSP,2013-09-13 04:51:00,
2013-09-12 23:56:00,64.2,49.5,30.14,North,0,0.0,0.0,59,0.00,,,0.00,WUHU21623XXSP,2013-09-13 04:56:00,